Time,TemperatureF,DewpointF,PressureIn,WindDirection,WindDirectionDegrees,WindSpeedMPH,WindSpeedGustMPH,Humidity,HourlyPrecipIn,Conditions,Clouds,dailyrainin,SoftwareType,DateUTC
2013-07-10 08:22:00,78.0,71.0,29.98,SSW,194,0.0,0.0,79,0.00,,,0.00,,2013-07-10 13:22:00,
2013-07-10 08:32:00,78.0,71.0,29.98,SSW,194,0.0,0.0,79,0.00,,,0.00,,2013-07-10 13:32:00,
2013-07-10 08:43:00,79.0,71.0,30.00,East,80,0.0,0.0,76,0.00,,,0.00,,2013-07-10 13:43:00,
2013-07-10 08:52:00,80.0,70.0,29.99,ENE,65,0.0,0.0,71,0.00,,,0.00,,2013-07-10 13:52:00,
2013-07-10 09:01:00,80.0,70.0,29.99,ENE,65,0.0,0.0,71,0.00,,,0.00,,2013-07-10 14:01:00,
2013-07-10 09:11:00,81.0,70.0,30.00,North,360,0.0,0.0,69,0.00,,,0.00,,2013-07-10 14:11:00,
2013-07-10 09:22:00,81.0,69.0,30.00,ENE,74,0.0,0.0,66,0.00,,,0.00,,2013-07-10 14:22:00,
2013-07-10 09:33:00,81.0,69.0,30.00,ENE,74,0.0,0.0,66,0.00,,,0.00,,2013-07-10 14:33:00,
2013-07-10 09:43:00,81.0,69.0,30.01,NNW,346,0.0,0.0,66,0.00,,,0.00,,2013-07-10 14:43:00,
2013-07-10 09:53:00,82.0,69.0,30.01,NW,325,1.0,1.0,65,0.00,,,0.00,,2013-07-10 14:53:00,
2013-07-10 10:01:00,82.0,69.0,30.01,NW,325,1.0,1.0,65,0.00,,,0.00,,2013-07-10 15:01:00,
2013-07-10 10:11:00,82.0,69.0,30.03,ENE,67,0.0,0.0,65,0.00,,,0.00,,2013-07-10 15:11:00,
2013-07-10 10:22:00,82.0,69.0,30.03,ENE,70,0.0,0.0,65,0.00,,,0.00,,2013-07-10 15:22:00,
2013-07-10 10:34:00,82.0,69.0,30.03,ENE,70,0.0,0.0,65,0.00,,,0.00,,2013-07-10 15:34:00,
2013-07-10 10:42:00,82.0,69.0,30.03,ESE,116,0.0,0.0,65,0.00,,,0.00,,2013-07-10 15:42:00,
2013-07-10 10:52:00,83.0,70.0,30.04,ENE,59,0.0,0.0,65,0.00,,,0.00,,2013-07-10 15:52:00,
2013-07-10 11:01:00,83.0,70.0,30.04,ENE,59,0.0,0.0,65,0.00,,,0.00,,2013-07-10 16:01:00,
2013-07-10 11:11:00,83.0,70.0,30.05,East,99,0.0,0.0,64,0.00,,,0.00,,2013-07-10 16:11:00,
2013-07-10 11:22:00,84.0,70.0,30.05,East,88,0.0,0.0,63,0.00,,,0.00,,2013-07-10 16:22:00,
2013-07-10 11:33:00,84.0,70.0,30.05,East,88,0.0,0.0,63,0.00,,,0.00,,2013-07-10 16:33:00,
2013-07-10 11:44:00,85.0,70.0,30.05,NE,43,0.0,0.0,62,0.00,,,0.00,,2013-07-10 16:44:00,
2013-07-10 11:53:00,85.0,69.0,30.05,East,81,0.0,0.0,58,0.00,,,0.00,,2013-07-10 16:53:00,
2013-07-10 12:02:00,85.0,69.0,30.05,East,81,0.0,0.0,58,0.00,,,0.00,,2013-07-10 17:02:00,
2013-07-10 12:11:00,85.0,70.0,30.06,ENE,71,0.0,0.0,61,0.00,,,0.00,,2013-07-10 17:11:00,
2013-07-10 12:23:00,86.0,67.0,30.05,ESE,116,0.0,0.0,53,0.00,,,0.00,,2013-07-10 17:23:00,
2013-07-10 12:32:00,86.0,67.0,30.05,ESE,116,0.0,0.0,53,0.00,,,0.00,,2013-07-10 17:32:00,
2013-07-10 12:43:00,86.0,68.0,30.05,NNW,346,0.0,0.0,55,0.00,,,0.00,,2013-07-10 17:43:00,
2013-07-10 12:52:00,86.0,68.0,30.05,NNW,346,0.0,0.0,55,0.00,,,0.00,,2013-07-10 17:52:00,
2013-07-10 13:02:00,86.0,68.0,30.05,NNW,346,0.0,0.0,55,0.00,,,0.00,,2013-07-10 18:02:00,
2013-07-10 13:11:00,86.0,68.0,30.05,NNW,346,0.0,0.0,55,0.00,,,0.00,,2013-07-10 18:11:00,
2013-07-10 13:21:00,88.0,67.0,30.04,ENE,69,0.0,0.0,50,0.00,,,0.00,,2013-07-10 18:21:00,
2013-07-10 13:32:00,88.0,67.0,30.04,ENE,69,0.0,0.0,50,0.00,,,0.00,,2013-07-10 18:32:00,
2013-07-10 13:44:00,89.0,63.0,30.04,NW,321,0.0,0.0,42,0.00,,,0.00,,2013-07-10 18:44:00,
2013-07-10 13:53:00,89.0,63.0,30.04,NW,321,0.0,0.0,42,0.00,,,0.00,,2013-07-10 18:53:00,
2013-07-10 14:01:00,89.0,63.0,30.04,NW,321,0.0,0.0,42,0.00,,,0.00,,2013-07-10 19:01:00,
2013-07-10 14:11:00,90.0,66.0,30.03,East,79,0.0,0.0,45,0.00,,,0.00,,2013-07-10 19:11:00,
2013-07-10 14:21:00,90.0,66.0,30.03,East,79,0.0,0.0,45,0.00,,,0.00,,2013-07-10 19:21:00,
2013-07-10 14:32:00,90.0,66.0,30.03,East,79,0.0,0.0,45,0.00,,,0.00,,2013-07-10 19:32:00,
2013-07-10 14:42:00,90.0,62.0,30.03,South,186,0.0,0.0,40,0.00,,,0.00,,2013-07-10 19:42:00,
2013-07-10 14:52:00,91.0,65.0,30.03,ESE,103,0.0,0.0,42,0.00,,,0.00,,2013-07-10 19:52:00,
2013-07-10 15:01:00,91.0,65.0,30.03,ESE,103,0.0,0.0,42,0.00,,,0.00,,2013-07-10 20:01:00,
2013-07-10 15:11:00,91.0,63.0,30.03,SSW,192,0.0,0.0,40,0.00,,,0.00,,2013-07-10 20:11:00,
2013-07-10 15:22:00,91.0,63.0,30.03,East,96,0.0,0.0,40,0.00,,,0.00,,2013-07-10 20:22:00,
2013-07-10 15:32:00,91.0,63.0,30.03,East,96,0.0,0.0,40,0.00,,,0.00,,2013-07-10 20:32:00,
2013-07-10 15:43:00,91.0,63.0,30.03,East,96,0.0,0.0,40,0.00,,,0.00,,2013-07-10 20:43:00,
2013-07-10 15:52:00,91.0,63.0,30.03,East,96,0.0,0.0,40,0.00,,,0.00,,2013-07-10 20:52:00,
2013-07-10 16:01:00,91.0,63.0,30.03,East,96,0.0,0.0,40,0.00,,,0.00,,2013-07-10 21:01:00,